| time (UTC) | temp F | wind direction | speed knots | gust knots | rain 1hr in | rain 24hr in | rain mn in | humidity % | barometer mb |
| 20260904215804 | 78 | 317 | 3.5 | 8.7 | 0.00 | 0.00 | 0.00 | 63 | 1007.9 |
| 20260904215300 | 78 | 327 | 4.3 | 7.8 | 0.00 | 0.00 | 0.00 | 64 | 1007.9 |
| 20260904214759 | 79 | 310 | 4.3 | 9.6 | 0.00 | 0.00 | 0.00 | 61 | 1007.9 |
| 20260904214254 | 79 | 306 | 3.5 | 9.6 | 0.00 | 0.00 | 0.00 | 62 | 1007.9 |
| 20260904213753 | 78 | 310 | 4.3 | 7.8 | 0.00 | 0.00 | 0.00 | 64 | 1007.9 |
| 20260904213251 | 79 | 320 | 4.3 | 7.8 | 0.00 | 0.00 | 0.00 | 62 | 1007.9 |
| 20260904212749 | 79 | 18 | 3.5 | 9.6 | 0.00 | 0.00 | 0.00 | 62 | 1008.0 |
| 20260904212250 | 80 | 313 | 3.5 | 9.6 | 0.00 | 0.00 | 0.00 | 61 | 1008.1 |
| 20260904211747 | 79 | 347 | 3.5 | 7.8 | 0.00 | 0.00 | 0.00 | 62 | 1008.0 |
| 20260904211251 | 78 | 325 | 3.5 | 7.8 | 0.00 | 0.00 | 0.00 | 63 | 1008.0 |
| 20260904210746 | 79 | 0 | 3.5 | 8.7 | 0.00 | 0.00 | 0.00 | 61 | 1008.0 |
| 20260904210246 | 79 | 335 | 3.5 | 8.7 | 0.00 | 0.00 | 0.00 | 62 | 1008.0 |
| 20260904205744 | 79 | 333 | 4.3 | 8.7 | 0.00 | 0.00 | 0.00 | 62 | 1007.9 |
| 20260904205244 | 79 | 350 | 4.3 | 8.7 | 0.00 | 0.00 | 0.00 | 62 | 1007.9 |
| 20260904204742 | 80 | 325 | 4.3 | 7.8 | 0.00 | 0.00 | 0.00 | 60 | 1008.0 |
| 20260904204242 | 80 | 305 | 4.3 | 7.8 | 0.00 | 0.00 | 0.00 | 59 | 1008.0 |
| 20260904203241 | 82 | 329 | 3.5 | 7.0 | 0.00 | 0.00 | 0.00 | 58 | 1008.0 |
| 20260904202742 | 81 | 12 | 3.5 | 6.1 | 0.00 | 0.00 | 0.00 | 58 | 1008.1 |
| 20260904202239 | 82 | 321 | 3.5 | 7.8 | 0.00 | 0.00 | 0.00 | 58 | 1008.1 |
| 20260904201738 | 81 | 15 | 2.6 | 8.7 | 0.00 | 0.00 | 0.00 | 58 | 1008.1 |
| 20260904201237 | 81 | 325 | 2.6 | 8.7 | 0.00 | 0.00 | 0.00 | 59 | 1008.1 |
| 20260904200738 | 81 | 318 | 3.5 | 8.7 | 0.00 | 0.00 | 0.00 | 58 | 1008.1 |
| 20260904200236 | 81 | 325 | 3.5 | 7.0 | 0.00 | 0.00 | 0.00 | 59 | 1008.1 |
| 20260904195734 | 81 | 320 | 3.5 | 7.0 | 0.00 | 0.00 | 0.00 | 59 | 1008.2 |
| 20260904194740 | 82 | 323 | 3.5 | 7.0 | 0.00 | 0.00 | 0.00 | 58 | 1008.2 |
| 20260904194234 | 81 | 306 | 2.6 | 7.0 | 0.00 | 0.00 | 0.00 | 59 | 1008.2 |
| 20260904193233 | 81 | 27 | 2.6 | 5.2 | 0.00 | 0.00 | 0.00 | 60 | 1008.2 |
| 20260904192729 | 80 | 309 | 1.7 | 5.2 | 0.00 | 0.00 | 0.00 | 61 | 1008.4 |
| 20260904192230 | 80 | 288 | 1.7 | 4.3 | 0.00 | 0.00 | 0.00 | 60 | 1008.4 |
| 20260904191727 | 80 | 18 | 1.7 | 4.3 | 0.00 | 0.00 | 0.00 | 61 | 1008.3 |
| 20260904191224 | 79 | 326 | 1.7 | 4.3 | 0.00 | 0.00 | 0.00 | 62 | 1008.5 |
| 20260904190724 | 79 | 0 | 1.7 | 3.5 | 0.00 | 0.00 | 0.00 | 61 | 1008.5 |
| 20260904190223 | 79 | 355 | 0.9 | 3.5 | 0.00 | 0.00 | 0.00 | 63 | 1008.5 |
| 20260904185726 | 78 | 355 | 1.7 | 5.2 | 0.00 | 0.00 | 0.00 | 63 | 1008.7 |
| 20260904185221 | 78 | 355 | 1.7 | 5.2 | 0.00 | 0.00 | 0.00 | 63 | 1008.7 |
| 20260904184716 | 78 | 22 | 1.7 | 5.2 | 0.00 | 0.00 | 0.00 | 64 | 1008.7 |
| 20260904184212 | 78 | 25 | 1.7 | 5.2 | 0.00 | 0.00 | 0.00 | 64 | 1008.9 |
| 20260904183711 | 77 | 27 | 1.7 | 5.2 | 0.00 | 0.00 | 0.00 | 65 | 1008.9 |
| 20260904183214 | 77 | 313 | 1.7 | 3.5 | 0.00 | 0.00 | 0.00 | 66 | 1008.9 |
| 20260904182711 | 76 | 313 | 1.7 | 3.5 | 0.00 | 0.00 | 0.00 | 68 | 1009.0 |
| 20260904182208 | 76 | 307 | 1.7 | 3.5 | 0.00 | 0.00 | 0.00 | 69 | 1009.0 |
| 20260904181201 | 74 | 306 | 1.7 | 4.3 | 0.00 | 0.00 | 0.00 | 71 | 1009.1 |
| 20260904180701 | 74 | 304 | 2.6 | 5.2 | 0.00 | 0.00 | 0.00 | 72 | 1009.1 |
| 20260904180200 | 74 | 306 | 1.7 | 5.2 | 0.00 | 0.00 | 0.00 | 71 | 1009.1 |
| 20260904175659 | 73 | 315 | 0.9 | 3.5 | 0.00 | 0.00 | 0.00 | 73 | 1009.1 |
| 20260904175200 | 73 | 315 | 1.7 | 4.3 | 0.00 | 0.00 | 0.00 | 74 | 1009.1 |
| 20260904174151 | 72 | 313 | 2.6 | 5.2 | 0.00 | 0.00 | 0.00 | 73 | 1009.1 |
| 20260904173651 | 73 | 290 | 1.7 | 4.3 | 0.00 | 0.00 | 0.00 | 74 | 1009.1 |
| 20260904173149 | 72 | 355 | 0.9 | 3.5 | 0.00 | 0.00 | 0.00 | 74 | 1009.1 |
| 20260904172644 | 72 | 0 | 0.9 | 3.5 | 0.00 | 0.00 | 0.00 | 75 | 1009.1 |
| 20260904172142 | 72 | 0 | 0.9 | 3.5 | 0.00 | 0.00 | 0.00 | 75 | 1009.1 |
| 20260904171639 | 71 | 5 | 0.0 | 2.6 | 0.00 | 0.00 | 0.00 | 78 | 1009.0 |
| 20260904171137 | 70 | 5 | 0.0 | 1.7 | 0.00 | 0.00 | 0.00 | 78 | 1008.7 |
| 20260904170636 | 70 | 5 | 0.9 | 3.5 | 0.00 | 0.00 | 0.00 | 79 | 1008.7 |
| 20260904170134 | 69 | 5 | 1.7 | 3.5 | 0.00 | 0.00 | 0.00 | 79 | 1008.7 |
| 20260904165638 | 70 | 5 | 1.7 | 3.5 | 0.00 | 0.00 | 0.00 | 79 | 1008.6 |
| 20260904165132 | 70 | 5 | 0.9 | 3.5 | 0.00 | 0.00 | 0.00 | 79 | 1008.6 |
| 20260904164629 | 70 | 5 | 0.0 | 0.9 | 0.00 | 0.00 | 0.00 | 79 | 1008.6 |
| 20260904164129 | 70 | 5 | 0.0 | 0.9 | 0.00 | 0.00 | 0.00 | 80 | 1008.5 |
| 20260904163627 | 69 | 5 | 0.0 | 0.0 | 0.00 | 0.00 | 0.00 | 82 | 1008.5 |
| 20260904162128 | 68 | 348 | 0.0 | 3.5 | 0.00 | 0.00 | 0.00 | 83 | 1008.5 |
| 20260904161122 | 66 | 333 | 0.0 | 0.0 | 0.00 | 0.00 | 0.00 | 88 | 1008.5 |
| 20260904160622 | 66 | 333 | 0.0 | 0.0 | 0.00 | 0.00 | 0.00 | 88 | 1008.5 |
| 20260904155618 | 66 | 331 | 0.0 | 0.0 | 0.00 | 0.00 | 0.00 | 91 | 1008.5 |
| 20260904155114 | 65 | 331 | 0.0 | 0.0 | 0.00 | 0.00 | 0.00 | 91 | 1008.5 |
| 20260904154613 | 65 | 331 | 0.0 | 0.0 | 0.00 | 0.00 | 0.00 | 91 | 1008.5 |
| 20260904153605 | 65 | 331 | 0.0 | 0.0 | 0.00 | 0.00 | 0.00 | 92 | 1008.5 |
| 20260904153102 | 65 | 331 | 0.0 | 0.0 | 0.00 | 0.00 | 0.00 | 93 | 1008.5 |
| 20260904152559 | 65 | 321 | 0.0 | 0.0 | 0.00 | 0.00 | 0.00 | 94 | 1008.5 |
| 20260904152056 | 64 | 321 | 0.0 | 0.0 | 0.00 | 0.00 | 0.00 | 94 | 1008.5 |
| 20260904151552 | 64 | 321 | 0.0 | 0.0 | 0.00 | 0.00 | 0.00 | 94 | 1008.5 |
| 20260904150550 | 64 | 321 | 0.0 | 0.0 | 0.00 | 0.00 | 0.00 | 94 | 1008.5 |
| 20260904145045 | 63 | 321 | 0.0 | 0.0 | 0.00 | 0.00 | 0.00 | 94 | 1008.4 |
| 20260904144542 | 63 | 321 | 0.0 | 0.0 | 0.00 | 0.00 | 0.00 | 95 | 1008.4 |
| 20260904144043 | 63 | 321 | 0.0 | 0.0 | 0.00 | 0.00 | 0.00 | 95 | 1008.3 |
| 20260904143044 | 63 | 321 | 0.0 | 0.0 | 0.00 | 0.00 | 0.00 | 94 | 1008.3 |
| 20260904142038 | 63 | 321 | 0.0 | 0.0 | 0.00 | 0.00 | 0.00 | 94 | 1008.2 |
| 20260904141537 | 63 | 321 | 0.0 | 0.0 | 0.00 | 0.00 | 0.00 | 95 | 1008.2 |
| 20260904141037 | 63 | 321 | 0.0 | 0.0 | 0.00 | 0.00 | 0.00 | 95 | 1008.0 |
| 20260904140532 | 62 | 321 | 0.0 | 0.0 | 0.00 | 0.00 | 0.00 | 95 | 1007.9 |
| 20260904140032 | 62 | 321 | 0.0 | 0.0 | 0.00 | 0.00 | 0.00 | 94 | 1007.9 |
| 20260904135529 | 62 | 321 | 0.0 | 0.0 | 0.00 | 0.00 | 0.00 | 94 | 1007.9 |
| 20260904135029 | 62 | 321 | 0.0 | 0.0 | 0.00 | 0.00 | 0.00 | 94 | 1007.9 |
| 20260904134526 | 62 | 321 | 0.0 | 0.0 | 0.00 | 0.00 | 0.00 | 94 | 1007.9 |
| 20260904134030 | 62 | 321 | 0.0 | 0.0 | 0.00 | 0.00 | 0.00 | 94 | 1007.9 |
| 20260904133520 | 62 | 321 | 0.0 | 0.9 | 0.00 | 0.00 | 0.00 | 94 | 1007.9 |
| 20260904133016 | 63 | 321 | 0.0 | 0.9 | 0.00 | 0.00 | 0.00 | 94 | 1007.9 |
| 20260904132515 | 63 | 321 | 0.0 | 0.0 | 0.00 | 0.00 | 0.00 | 94 | 1007.8 |
| 20260904132007 | 63 | 321 | 0.0 | 0.0 | 0.00 | 0.00 | 0.00 | 94 | 1007.8 |
| 20260904131505 | 63 | 321 | 0.0 | 0.0 | 0.00 | 0.00 | 0.00 | 94 | 1007.8 |
| 20260904131000 | 63 | 321 | 0.0 | 0.0 | 0.00 | 0.00 | 0.00 | 94 | 1007.9 |
| 20260904130454 | 63 | 321 | 0.0 | 0.0 | 0.00 | 0.00 | 0.00 | 93 | 1007.9 |
| 20260904125951 | 63 | 321 | 0.0 | 0.0 | 0.00 | 0.00 | 0.00 | 93 | 1007.9 |
| 20260904124448 | 63 | 321 | 0.0 | 0.0 | 0.00 | 0.00 | 0.00 | 93 | 1007.6 |
| 20260904123441 | 63 | 321 | 0.0 | 0.0 | 0.00 | 0.00 | 0.00 | 93 | 1007.6 |
| 20260904122942 | 63 | 321 | 0.0 | 0.0 | 0.00 | 0.00 | 0.00 | 93 | 1007.6 |
| 20260904122438 | 63 | 321 | 0.0 | 0.0 | 0.00 | 0.00 | 0.00 | 93 | 1007.6 |
| 20260904121433 | 63 | 321 | 0.0 | 0.0 | 0.00 | 0.00 | 0.00 | 93 | 1007.6 |
| 20260904120928 | 63 | 321 | 0.0 | 0.0 | 0.00 | 0.00 | 0.00 | 93 | 1007.7 |
| 20260904120429 | 63 | 321 | 0.0 | 0.0 | 0.00 | 0.00 | 0.00 | 93 | 1007.7 |
| 20260904115924 | 63 | 321 | 0.0 | 0.0 | 0.00 | 0.00 | 0.00 | 93 | 1007.7 |
| 20260904114918 | 63 | 321 | 0.0 | 0.9 | 0.00 | 0.00 | 0.00 | 93 | 1007.7 |
| 20260904114415 | 63 | 321 | 0.0 | 0.9 | 0.00 | 0.00 | 0.00 | 93 | 1007.7 |
| 20260904113915 | 63 | 321 | 0.0 | 0.9 | 0.00 | 0.00 | 0.00 | 93 | 1007.8 |
| 20260904113415 | 63 | 321 | 0.0 | 0.0 | 0.00 | 0.00 | 0.00 | 93 | 1007.8 |
| 20260904112917 | 63 | 321 | 0.0 | 0.0 | 0.00 | 0.00 | 0.00 | 93 | 1007.8 |
| 20260904112408 | 63 | 321 | 0.0 | 0.0 | 0.00 | 0.00 | 0.00 | 93 | 1007.6 |
| 20260904110859 | 63 | 321 | 0.0 | 0.0 | 0.00 | 0.00 | 0.00 | 93 | 1007.6 |
| 20260904110400 | 63 | 321 | 0.0 | 0.0 | 0.00 | 0.00 | 0.00 | 93 | 1007.6 |
| 20260904105856 | 63 | 321 | 0.0 | 0.0 | 0.00 | 0.00 | 0.00 | 93 | 1007.5 |
| 20260904104349 | 63 | 321 | 0.0 | 1.7 | 0.00 | 0.00 | 0.00 | 93 | 1007.5 |
| 20260904103842 | 63 | 321 | 0.9 | 1.7 | 0.00 | 0.00 | 0.00 | 92 | 1007.5 |
| 20260904103339 | 63 | 321 | 0.0 | 1.7 | 0.00 | 0.00 | 0.00 | 92 | 1007.5 |
| 20260904102331 | 63 | 321 | 0.0 | 1.7 | 0.00 | 0.00 | 0.00 | 92 | 1007.5 |
| 20260904101827 | 63 | 321 | 0.0 | 0.0 | 0.00 | 0.00 | 0.00 | 92 | 1007.5 |
| 20260904101328 | 63 | 321 | 0.0 | 0.0 | 0.00 | 0.00 | 0.00 | 92 | 1007.5 |
| 20260904100822 | 63 | 321 | 0.0 | 0.0 | 0.00 | 0.00 | 0.00 | 92 | 1007.5 |
| 20260904100319 | 63 | 321 | 0.0 | 0.9 | 0.00 | 0.00 | 0.00 | 92 | 1007.5 |
| 20260904095820 | 63 | 321 | 0.0 | 0.9 | 0.00 | 0.00 | 0.00 | 92 | 1007.5 |
| 20260904095320 | 63 | 321 | 0.0 | 0.9 | 0.00 | 0.00 | 0.00 | 91 | 1007.5 |
| 20260904094824 | 63 | 321 | 0.0 | 1.7 | 0.00 | 0.00 | 0.00 | 91 | 1007.5 |
| 20260904094314 | 63 | 321 | 0.0 | 1.7 | 0.00 | 0.00 | 0.00 | 91 | 1007.5 |
| 20260904093816 | 63 | 321 | 0.0 | 2.6 | 0.00 | 0.00 | 0.00 | 91 | 1007.5 |
| 20260904093316 | 64 | 321 | 0.0 | 2.6 | 0.00 | 0.00 | 0.00 | 91 | 1007.5 |
| 20260904092305 | 63 | 321 | 0.0 | 0.9 | 0.00 | 0.00 | 0.00 | 91 | 1007.5 |
| 20260904091757 | 63 | 321 | 0.0 | 1.7 | 0.00 | 0.00 | 0.00 | 91 | 1007.5 |
| 20260904091258 | 63 | 321 | 0.0 | 1.7 | 0.00 | 0.00 | 0.00 | 91 | 1007.5 |
| 20260904090752 | 63 | 321 | 0.0 | 1.7 | 0.00 | 0.00 | 0.00 | 91 | 1007.5 |
| 20260904085753 | 63 | 321 | 0.0 | 1.7 | 0.00 | 0.00 | 0.00 | 90 | 1007.5 |
| 20260904084744 | 63 | 321 | 0.0 | 1.7 | 0.00 | 0.00 | 0.00 | 91 | 1007.5 |
| 20260904084244 | 63 | 321 | 0.0 | 0.0 | 0.00 | 0.00 | 0.00 | 91 | 1007.8 |
| 20260904083743 | 63 | 321 | 0.0 | 0.9 | 0.00 | 0.00 | 0.00 | 90 | 1007.8 |
| 20260904083243 | 63 | 321 | 0.0 | 0.9 | 0.00 | 0.00 | 0.00 | 90 | 1007.8 |
| 20260904082740 | 63 | 321 | 0.0 | 0.9 | 0.00 | 0.00 | 0.00 | 90 | 1007.9 |
| 20260904082243 | 63 | 321 | 0.0 | 0.9 | 0.00 | 0.00 | 0.00 | 90 | 1007.9 |
| 20260904081741 | 63 | 321 | 0.0 | 0.9 | 0.00 | 0.00 | 0.00 | 90 | 1007.9 |
| 20260904081233 | 63 | 321 | 0.0 | 0.9 | 0.00 | 0.00 | 0.00 | 90 | 1008.0 |
| 20260904080733 | 63 | 321 | 0.0 | 1.7 | 0.00 | 0.00 | 0.00 | 90 | 1008.0 |
| 20260904080233 | 63 | 321 | 0.0 | 1.7 | 0.00 | 0.00 | 0.00 | 90 | 1008.0 |
| 20260904075724 | 63 | 321 | 0.0 | 0.9 | 0.00 | 0.00 | 0.00 | 90 | 1008.0 |
| 20260904075218 | 63 | 321 | 0.0 | 0.9 | 0.00 | 0.00 | 0.00 | 90 | 1008.0 |
| 20260904074718 | 63 | 321 | 0.0 | 0.9 | 0.00 | 0.00 | 0.00 | 90 | 1008.0 |
| 20260904073714 | 63 | 321 | 0.9 | 2.6 | 0.00 | 0.00 | 0.00 | 90 | 1008.0 |
| 20260904073213 | 63 | 321 | 0.9 | 2.6 | 0.00 | 0.00 | 0.00 | 90 | 1008.0 |
| 20260904072707 | 63 | 321 | 0.0 | 2.6 | 0.00 | 0.00 | 0.00 | 90 | 1008.0 |
| 20260904072208 | 63 | 320 | 0.0 | 0.0 | 0.00 | 0.00 | 0.00 | 90 | 1008.0 |
| 20260904071708 | 63 | 320 | 0.0 | 0.0 | 0.00 | 0.00 | 0.00 | 90 | 1008.0 |
| 20260904071206 | 63 | 320 | 0.0 | 0.0 | 0.00 | 0.00 | 0.00 | 89 | 1008.0 |
| 20260904070203 | 63 | 320 | 0.0 | 0.0 | 0.00 | 0.00 | 0.00 | 89 | 1008.0 |
| 20260904065154 | 63 | 320 | 0.0 | 0.0 | 0.00 | 0.00 | 0.00 | 89 | 1008.0 |
| 20260904064152 | 63 | 320 | 0.0 | 0.0 | 0.00 | 0.00 | 0.00 | 89 | 1008.0 |
| 20260904063650 | 63 | 320 | 0.0 | 0.0 | 0.00 | 0.00 | 0.00 | 89 | 1008.0 |
| 20260904063146 | 63 | 320 | 0.0 | 0.0 | 0.00 | 0.00 | 0.00 | 89 | 1008.0 |
| 20260904062648 | 63 | 320 | 0.0 | 0.0 | 0.00 | 0.00 | 0.00 | 89 | 1008.0 |
| 20260904062145 | 63 | 319 | 0.0 | 0.0 | 0.00 | 0.00 | 0.00 | 89 | 1008.0 |
| 20260904061651 | 63 | 319 | 0.0 | 0.0 | 0.00 | 0.00 | 0.00 | 89 | 1008.0 |
| 20260904060638 | 63 | 319 | 0.0 | 0.0 | 0.00 | 0.00 | 0.00 | 89 | 1008.0 |
| 20260904060138 | 63 | 319 | 0.0 | 0.0 | 0.00 | 0.00 | 0.00 | 89 | 1008.0 |
| 20260904055638 | 63 | 319 | 0.0 | 0.0 | 0.00 | 0.00 | 0.00 | 89 | 1008.0 |
| 20260904054631 | 63 | 319 | 0.0 | 0.0 | 0.00 | 0.00 | 0.00 | 89 | 1008.0 |
| 20260904054134 | 63 | 319 | 0.0 | 0.0 | 0.00 | 0.00 | 0.00 | 89 | 1007.9 |
| 20260904053630 | 63 | 319 | 0.0 | 0.9 | 0.00 | 0.00 | 0.00 | 89 | 1007.9 |
| 20260904053128 | 63 | 316 | 0.0 | 1.7 | 0.00 | 0.00 | 0.00 | 89 | 1008.0 |
| 20260904052628 | 63 | 315 | 0.0 | 1.7 | 0.00 | 0.00 | 0.00 | 89 | 1008.0 |
| 20260904052126 | 63 | 292 | 0.0 | 2.6 | 0.00 | 0.00 | 0.00 | 89 | 1008.0 |
| 20260904051625 | 63 | 292 | 0.0 | 2.6 | 0.00 | 0.00 | 0.00 | 89 | 1008.0 |
| 20260904045618 | 62 | 290 | 0.0 | 0.0 | 0.00 | 0.00 | 0.00 | 89 | 1007.9 |
| 20260904045117 | 62 | 290 | 0.0 | 0.0 | 0.00 | 0.00 | 0.00 | 89 | 1007.9 |
| 20260904044616 | 62 | 290 | 0.0 | 0.0 | 0.00 | 0.00 | 0.00 | 89 | 1007.9 |
| 20260904044113 | 62 | 290 | 0.0 | 0.0 | 0.00 | 0.00 | 0.00 | 89 | 1007.9 |
| 20260904043609 | 62 | 290 | 0.0 | 2.6 | 0.00 | 0.00 | 0.00 | 89 | 1007.9 |
| 20260904043107 | 62 | 290 | 0.0 | 2.6 | 0.00 | 0.00 | 0.00 | 89 | 1007.9 |
| 20260904042602 | 62 | 290 | 0.0 | 1.7 | 0.00 | 0.00 | 0.00 | 89 | 1007.9 |
| 20260904042100 | 62 | 290 | 0.0 | 1.7 | 0.00 | 0.00 | 0.00 | 89 | 1007.9 |
| 20260904041058 | 62 | 290 | 0.0 | 1.7 | 0.00 | 0.00 | 0.00 | 89 | 1007.8 |
| 20260904040552 | 62 | 290 | 0.9 | 1.7 | 0.00 | 0.00 | 0.00 | 89 | 1007.8 |
| 20260904040047 | 62 | 290 | 0.9 | 2.6 | 0.00 | 0.00 | 0.00 | 89 | 1007.8 |
| 20260904035548 | 62 | 290 | 0.0 | 2.6 | 0.00 | 0.00 | 0.00 | 88 | 1007.5 |
| 20260904034042 | 62 | 290 | 0.9 | 2.6 | 0.00 | 0.00 | 0.00 | 87 | 1007.4 |
| 20260904033541 | 62 | 290 | 0.0 | 2.6 | 0.00 | 0.00 | 0.00 | 87 | 1007.4 |
| 20260904033040 | 62 | 290 | 0.0 | 2.6 | 0.00 | 0.00 | 0.00 | 87 | 1007.4 |
| 20260904032034 | 62 | 290 | 0.9 | 3.5 | 0.00 | 0.00 | 0.00 | 86 | 1007.4 |
| 20260904031535 | 62 | 290 | 0.9 | 1.7 | 0.00 | 0.00 | 0.00 | 86 | 1007.4 |
| 20260904031035 | 62 | 290 | 0.9 | 3.5 | 0.00 | 0.00 | 0.00 | 86 | 1007.4 |
| 20260904025023 | 63 | 279 | 1.7 | 3.5 | 0.00 | 0.00 | 0.00 | 85 | 1007.4 |
| 20260904024522 | 63 | 281 | 2.6 | 6.1 | 0.00 | 0.00 | 0.00 | 85 | 1007.4 |
| 20260904024027 | 63 | 282 | 2.6 | 6.1 | 0.00 | 0.00 | 0.00 | 84 | 1007.4 |
| 20260904023521 | 63 | 314 | 2.6 | 6.1 | 0.00 | 0.00 | 0.00 | 84 | 1007.4 |
| 20260904023021 | 63 | 301 | 3.5 | 6.1 | 0.00 | 0.00 | 0.00 | 84 | 1007.4 |
| 20260904022524 | 64 | 294 | 3.5 | 7.0 | 0.00 | 0.00 | 0.00 | 83 | 1007.3 |
| 20260904021018 | 64 | 309 | 3.5 | 7.8 | 0.00 | 0.00 | 0.00 | 82 | 1007.2 |
| 20260904020516 | 64 | 303 | 3.5 | 7.8 | 0.00 | 0.00 | 0.00 | 81 | 1007.2 |
| 20260904015513 | 65 | 288 | 3.5 | 7.8 | 0.00 | 0.00 | 0.00 | 80 | 1007.2 |
| 20260904014505 | 65 | 281 | 3.5 | 7.8 | 0.00 | 0.00 | 0.00 | 79 | 1007.2 |
| 20260904014007 | 65 | 309 | 3.5 | 7.8 | 0.00 | 0.00 | 0.00 | 78 | 1007.3 |
| 20260904013502 | 66 | 279 | 3.5 | 7.0 | 0.00 | 0.00 | 0.00 | 78 | 1007.3 |
| 20260904012959 | 66 | 284 | 3.5 | 9.6 | 0.00 | 0.00 | 0.00 | 77 | 1007.3 |
| 20260904012458 | 67 | 295 | 3.5 | 8.7 | 0.00 | 0.00 | 0.00 | 76 | 1007.4 |
| 20260904011956 | 67 | 275 | 3.5 | 8.7 | 0.00 | 0.00 | 0.00 | 75 | 1007.4 |
| 20260904011458 | 67 | 306 | 4.3 | 8.7 | 0.00 | 0.00 | 0.00 | 75 | 1007.4 |
| 20260904010956 | 68 | 307 | 4.3 | 9.6 | 0.00 | 0.00 | 0.00 | 74 | 1007.5 |
| 20260904010457 | 68 | 313 | 4.3 | 10.4 | 0.00 | 0.00 | 0.00 | 74 | 1007.5 |
| 20260904005956 | 69 | 275 | 4.3 | 12.2 | 0.00 | 0.00 | 0.00 | 73 | 1007.5 |
| 20260904005454 | 69 | 293 | 4.3 | 12.2 | 0.00 | 0.00 | 0.00 | 71 | 1007.5 |
| 20260904004958 | 70 | 312 | 3.5 | 9.6 | 0.00 | 0.00 | 0.00 | 69 | 1007.5 |
| 20260904003950 | 71 | 311 | 3.5 | 7.0 | 0.00 | 0.00 | 0.00 | 66 | 1007.6 |
| 20260904002948 | 71 | 315 | 3.5 | 8.7 | 0.00 | 0.00 | 0.00 | 67 | 1007.6 |
| 20260904002447 | 71 | 303 | 4.3 | 9.6 | 0.00 | 0.00 | 0.00 | 67 | 1007.6 |
| 20260904001946 | 71 | 315 | 4.3 | 9.6 | 0.00 | 0.00 | 0.00 | 67 | 1007.6 |
| 20260904001445 | 71 | 324 | 4.3 | 9.6 | 0.00 | 0.00 | 0.00 | 68 | 1007.6 |
| 20260904000941 | 71 | 312 | 4.3 | 9.6 | 0.00 | 0.00 | 0.00 | 67 | 1007.6 |
| 20260904000444 | 71 | 311 | 4.3 | 9.6 | 0.00 | 0.00 | 0.00 | 68 | 1007.6 |
| 20260903235942 | 72 | 301 | 4.3 | 9.6 | 0.00 | 0.00 | 0.00 | 66 | 1007.6 |
| 20260903235441 | 72 | 0 | 4.3 | 8.7 | 0.00 | 0.00 | 0.00 | 65 | 1007.8 |
| 20260903234940 | 72 | 321 | 4.3 | 8.7 | 0.00 | 0.00 | 0.00 | 66 | 1007.8 |
| 20260903234439 | 72 | 319 | 4.3 | 8.7 | 0.00 | 0.00 | 0.00 | 66 | 1007.8 |
| 20260903233936 | 72 | 323 | 4.3 | 9.6 | 0.00 | 0.00 | 0.00 | 67 | 1007.8 |
| 20260903232934 | 72 | 302 | 5.2 | 12.2 | 0.00 | 0.00 | 0.00 | 65 | 1007.8 |
| 20260903231436 | 73 | 303 | 4.3 | 10.4 | 0.00 | 0.00 | 0.00 | 64 | 1008.0 |
| 20260903230940 | 73 | 58 | 4.3 | 9.6 | 0.00 | 0.00 | 0.00 | 65 | 1008.0 |
| 20260903230434 | 73 | 309 | 4.3 | 10.4 | 0.00 | 0.00 | 0.00 | 64 | 1008.0 |
| 20260903225930 | 73 | 312 | 4.3 | 10.4 | 0.00 | 0.00 | 0.00 | 62 | 1008.0 |
| 20260903224929 | 73 | 298 | 4.3 | 10.4 | 0.00 | 0.00 | 0.00 | 65 | 1008.1 |
| 20260903224431 | 73 | 321 | 5.2 | 11.3 | 0.00 | 0.00 | 0.00 | 63 | 1008.1 |
| 20260903223927 | 73 | 0 | 5.2 | 11.3 | 0.00 | 0.00 | 0.00 | 63 | 1008.1 |
| 20260903222424 | 73 | 305 | 6.1 | 11.3 | 0.00 | 0.00 | 0.00 | 62 | 1008.1 |
| 20260903221921 | 74 | 294 | 5.2 | 11.3 | 0.00 | 0.00 | 0.00 | 62 | 1008.1 |
| 20260903221416 | 74 | 326 | 5.2 | 11.3 | 0.00 | 0.00 | 0.00 | 62 | 1008.1 |
| 20260903220917 | 74 | 335 | 5.2 | 10.4 | 0.00 | 0.00 | 0.00 | 62 | 1008.3 |
| 20260903220416 | 74 | 305 | 4.3 | 10.4 | 0.00 | 0.00 | 0.00 | 61 | 1008.3 |